Location: Alpha Ridge Park
(39.3209°N, 76.9128°W)
Time: 07:46:08
(UTC-04:00)

S-56A Canister/Altair - Pass Details

Date: 28 May 2019
Orbit: 633 x 2499 km, 38.9° (Epoch: 17 June)

Event Time Altitude Azimuth Distance (km) Brightness Sun altitude
Rises 01:28:45 0° 246° (WSW) 3,061 - -29.0°
Reaches altitude 10° 01:30:50 10° 243° (WSW) 2,251 - -29.0°
Maximum altitude 01:35:57 66° 161° (SSE) 989 - -28.8°
Exits shadow 01:37:16 53° 108° (ESE) 1,174 8.3 -28.8°
Drops below altitude 10° 01:43:21 10° 81° (E) 3,215 10.9 -28.6°
Sets 01:46:52 0° 79° (E) 4,495 11.7 -28.5°
